EW6361 Weather Reports


time (UTC)temp
C
wind
direction
speed
KPH
gust
KPH
rain 1hr
cm
rain 24hr
cm
rain mn
cm
humidity
%
barometer
mb
20260504000022 21 173 6.4 0.0 0.00 0.00 0.00 36 1013.0
20260503234522 21 200 6.4 0.0 0.00 0.00 0.00 38 1013.0
20260503233011 21 200 6.4 0.0 0.00 0.00 0.00 40 1013.0
20260503231516 22 219 8.0 0.0 0.00 0.00 0.00 40 1013.0
20260503230010 22 174 6.4 0.0 0.00 0.00 0.00 42 1013.0
20260503224509 22 238 6.4 0.0 0.00 0.00 0.00 43 1013.0
20260503223009 22 247 6.4 0.0 0.00 0.00 0.00 43 1013.0
20260503221509 22 211 8.0 0.0 0.00 0.00 0.00 43 1013.0
20260503220009 22 262 8.0 0.0 0.00 0.00 0.00 41 1013.0
20260503214508 22 157 6.4 0.0 0.00 0.00 0.00 39 1013.2
20260503213053 22 183 6.4 0.0 0.00 0.00 0.00 39 1013.4
20260503211554 22 201 8.0 0.0 0.00 0.00 0.00 38 1013.5
20260503210052 23 176 6.4 0.0 0.00 0.00 0.00 35 1013.9
20260503204557 22 183 6.4 0.0 0.00 0.00 0.00 36 1014.0
20260503203052 22 234 8.0 0.0 0.00 0.00 0.00 36 1014.1
20260503201550 23 252 8.0 0.0 0.00 0.00 0.00 40 1014.2
20260503200047 23 9 1.6 0.0 0.00 0.00 0.00 32 1014.5
20260503194548 23 58 4.8 0.0 0.00 0.00 0.00 32 1014.8
20260503193029 23 54 4.8 0.0 0.00 0.00 0.00 32 1015.0
20260503191528 23 30 1.6 0.0 0.00 0.00 0.00 31 1015.3
20260503190034 22 26 3.2 0.0 0.00 0.00 0.00 35 1015.6
20260503184511 22 42 4.8 0.0 0.00 0.00 0.00 33 1015.7
20260503183015 22 25 6.4 0.0 0.00 0.00 0.00 35 1016.0
20260503181510 22 66 4.8 0.0 0.00 0.00 0.00 33 1016.1
20260503180011 22 15 6.4 0.0 0.00 0.00 0.00 35 1016.3
20260503174506 21 51 9.7 0.0 0.00 0.00 0.00 34 1016.3
20260503173004 21 58 9.7 0.0 0.00 0.00 0.00 37 1016.4
20260503171502 21 16 9.7 0.0 0.00 0.00 0.00 34 1016.6
20260503081546 -17 0.0 0.0 0.00 0.00 0.00 1014.8
20260503071524 70 15 11.3 0.0 0.00 0.00 0.00 100 1014.5
20260503054529 18 22 14.5 0.0 0.00 0.00 0.00 100 1014.2
20260503053020 17 13 11.3 0.0 0.00 0.00 0.00 100 1014.1
20260503051559 17 5 11.3 0.0 0.00 0.00 0.00 100 1014.1
20260503050052 17 9 8.0 0.0 0.00 0.00 0.00 32 1014.0
20260503044537 17 342 9.7 0.0 0.00 0.00 0.00 33 1014.0
20260503043032 17 345 8.0 0.0 0.00 0.00 0.00 34 1013.9
20260503041527 17 338 9.7 0.0 0.00 0.00 0.00 34 1013.5
20260503040026 17 344 9.7 0.0 0.00 0.00 0.00 34 1013.5
20260503034518 17 344 9.7 0.0 0.00 0.00 0.00 20 1013.4
20260503033024 17 355 12.9 0.0 0.00 0.00 0.00 34 1013.3
20260503031510 17 346 14.5 0.0 0.00 0.00 0.00 33 1013.2
20260503030005 18 5 16.1 0.0 0.00 0.00 0.00 33 1013.0
20260503024557 18 360 14.5 0.0 0.00 0.00 0.00 33 1013.0
20260503023046 18 11 17.7 0.0 0.00 0.00 0.00 34 1012.8
20260503021547 18 15 16.1 0.0 0.00 0.00 0.00 34 1012.7
20260503020039 18 360 17.7 0.0 0.00 0.00 0.00 34 1012.5
20260503014544 18 5 19.3 0.0 0.00 0.00 0.00 33 1012.3
20260503013033 18 355 19.3 0.0 0.00 0.00 0.00 28 1012.0
20260503011522 19 10 19.3 0.0 0.00 0.00 0.00 33 1011.8
20260503010018 19 355 19.3 0.0 0.00 0.00 0.00 33 1011.4
20260503004515 23 360 17.7 0.0 0.00 0.00 0.00 100 1011.1
20260503003059 20 360 20.9 0.0 0.00 0.00 0.00 100 1010.8
20260503001556 26 350 20.9 0.0 0.00 0.00 0.00 100 1010.4